Погода в Заречье

Россия / Смоленская область     54°54′46″N   34°33′18″E
темп.,
°C
ветер,
м/с
пор.,
м/с
влажн.,
%
обл.,
%
осадки,
мм/ч
давл.,
гПа
погр.,
м
16 июня, ср
ср1600:00+14сз229030 0.0 101218
03:00+13ссз35921 0.0 101275
06:00+13ссз3691100 0.0 1013168
09:00+18с467664 0.0 1014629
12:00+21с45624 0.0 10151227
15:00+21с4553100 0.0 10161589
18:00+20с36601 0.0 1017631
21:00+15с227514 0.0 101819
17 июня, чт
чт1700:00+13ссв2279100 0.0 102011
03:00+11ссв22816 0.0 102227
06:00+12всв24801 0.0 102392
09:00+18всв23585 0.0 1024399
12:00+22св22465 0.0 10241351
15:00+23с32450 0.0 10241661
18:00+22ссв23590 0.0 1024422
21:00+16св22720 0.0 102511
18 июня, пт
пт1800:00+13юв11795 0.0 102610
03:00+12ююз01850 0.0 102710
06:00+15юз11815 0.0 102821
09:00+20ююв22641 0.0 1028373
12:00+23ю22504 0.0 10281201
15:00+25ю22465 0.0 10271641
18:00+24ююв34615 0.0 1026365
21:00+18ю33820 0.0 102747
19 июня, сб
сб1900:00+15ююз22890 0.0 102837
03:00+14ююз22935 0.0 102932
06:00+15ююз24910 0.0 1029114
09:00+20ююз22710 0.0 1028461
12:00+24ю23550 0.0 10281196
15:00+26ю23472 0.0 10261562
18:00+25ююв34610 0.0 1025406
21:00+18ююв34824 0.0 102658
20 июня, вс
вс2000:00+15ю22900 0.0 102620
03:00+14ююз229336 0.0 102731
06:00+16ю239120 0.0 1027101
09:00+21ю237262 0.0 1026548
12:00+24ю345586 0.0 10251327
15:00+26ю3348100 0.0 10231643
18:00+25ююз2462100 0.0 1023328
21:00+19ю227782 0.0 102312